Total_Precipitation_Accumulation
0.41 0.38 0.38 0.34 0.33 0.35 0.36 0.45 0.61 0.43 0.12 0.04 0.05 0.07 0.10 0.14 0.19 0.19 0.18 0.21 0.28 0.35 0.39 0.42 0.48 0.58 0.90 1.57 2.54 3.23 3.11 2.47 1.78 1.43 1.49 1.80 2.27 2.72
0.47 0.46 0.45 0.42 0.40 0.40 0.41 0.40 0.47 0.55 0.34 0.07 0.07 0.08 0.11 0.14 0.19 0.20 0.20 0.23 0.24 0.29 0.34 0.37 0.42 0.52 0.68 0.99 1.58 2.51 3.12 3.07 2.48 1.92 1.74 1.89 2.14 2.61
0.50 0.52 0.51 0.47 0.46 0.42 0.42 0.41 0.40 0.46 0.46 0.14 0.07 0.10 0.15 0.19 0.20 0.20 0.21 0.19 0.18 0.22 0.28 0.36 0.41 0.49 0.62 0.80 1.08 1.68 2.56 3.08 3.07 2.60 2.22 2.07 2.07 2.24
0.65 0.61 0.60 0.59 0.60 0.56 0.54 0.48 0.43 0.42 0.48 0.34 0.13 0.10 0.17 0.25 0.30 0.28 0.23 0.20 0.17 0.19 0.24 0.31 0.39 0.46 0.57 0.71 0.88 1.17 1.76 2.50 2.99 2.96 2.58 2.24 2.09 2.18
0.92 0.89 0.84 0.79 0.81 0.76 0.72 0.63 0.51 0.43 0.43 0.43 0.26 0.16 0.19 0.27 0.37 0.37 0.32 0.25 0.20 0.21 0.25 0.29 0.35 0.40 0.48 0.59 0.73 0.90 1.17 1.59 2.22 2.77 2.95 2.68 2.33 2.19
1.05 1.04 1.08 1.08 1.07 1.01 0.96 0.80 0.64 0.56 0.50 0.50 0.40 0.27 0.24 0.30 0.47 0.52 0.47 0.37 0.28 0.23 0.27 0.28 0.33 0.39 0.40 0.43 0.48 0.62 0.89 1.28 1.72 2.30 2.85 2.98 2.66 2.37
0.84 0.84 0.92 1.07 1.17 1.22 1.23 1.07 0.93 0.88 0.77 0.71 0.60 0.48 0.39 0.43 0.57 0.62 0.66 0.59 0.49 0.38 0.31 0.25 0.26 0.27 0.28 0.33 0.42 0.52 0.71 0.95 1.27 1.73 2.31 2.83 2.88 2.67
0.68 0.65 0.67 0.80 0.89 0.97 1.10 1.15 1.20 1.27 1.20 1.04 0.87 0.72 0.54 0.50 0.57 0.74 0.82 0.88 0.81 0.56 0.47 0.39 0.33 0.31 0.28 0.27 0.32 0.42 0.59 0.82 1.07 1.37 1.74 2.24 2.66 2.79
0.52 0.51 0.49 0.54 0.65 0.63 0.73 0.86 1.01 1.19 1.32 1.28 1.20 0.93 0.68 0.57 0.67 0.84 0.91 0.98 0.88 0.73 0.75 0.72 0.58 0.46 0.38 0.36 0.40 0.43 0.52 0.68 0.87 1.09 1.34 1.68 2.12 2.55
0.52 0.46 0.40 0.41 0.53 0.60 0.67 0.68 0.69 0.85 1.11 1.26 1.34 1.15 0.89 0.78 0.91 1.10 1.21 1.19 1.03 0.95 0.99 1.02 0.78 0.63 0.56 0.52 0.49 0.45 0.46 0.53 0.67 0.85 1.06 1.29 1.61 2.04
0.56 0.51 0.44 0.37 0.55 0.66 0.60 0.54 0.50 0.59 0.75 1.00 1.17 1.19 1.13 1.11 1.18 1.37 1.48 1.53 1.42 1.18 1.14 1.19 1.03 0.81 0.75 0.75 0.67 0.56 0.47 0.47 0.54 0.68 0.84 1.02 1.23 1.62
0.54 0.51 0.58 0.56 0.63 0.62 0.51 0.51 0.56 0.53 0.51 0.57 0.64 0.73 0.77 0.80 1.01 1.23 1.36 1.50 1.51 1.52 1.31 1.24 1.28 1.20 1.22 0.98 0.78 0.57 0.48 0.49 0.53 0.58 0.67 0.78 0.97 1.17
0.55 0.50 0.49 0.61 0.60 0.56 0.53 0.52 0.63 0.56 0.45 0.50 0.54 0.55 0.61 0.66 0.74 0.94 1.18 1.36 1.51 1.52 1.34 1.36 1.56 1.39 1.35 1.20 0.95 0.73 0.51 0.44 0.46 0.57 0.65 0.72 0.82 0.91
0.55 0.45 0.45 0.55 0.55 0.56 0.53 0.56 0.58 0.54 0.49 0.49 0.47 0.45 0.51 0.60 0.69 0.79 0.96 1.10 1.22 1.30 1.23 1.34 1.68 1.54 1.39 1.17 1.00 0.91 0.70 0.54 0.46 0.48 0.54 0.76 0.87 0.92
0.68 0.68 0.62 0.61 0.56 0.46 0.45 0.51 0.49 0.44 0.49 0.50 0.43 0.38 0.42 0.54 0.61 0.70 0.78 0.89 0.99 1.08 1.16 1.23 1.46 1.57 1.52 1.28 0.96 0.87 0.87 0.79 0.60 0.53 0.54 0.59 0.66 0.74
0.75 0.72 0.68 0.63 0.53 0.45 0.43 0.39 0.36 0.39 0.47 0.48 0.43 0.38 0.39 0.47 0.57 0.68 0.81 0.87 0.96 1.00 1.11 1.22 1.39 1.65 1.64 1.23 1.02 0.90 0.80 0.89 0.77 0.58 0.55 0.58 0.60 0.57
0.76 0.72 0.64 0.54 0.48 0.40 0.34 0.28 0.29 0.35 0.42 0.41 0.42 0.44 0.44 0.47 0.53 0.62 0.81 0.93 1.01 0.97 1.10 1.32 1.43 1.58 1.65 1.52 1.33 1.00 0.80 0.73 0.72 0.62 0.59 0.67 0.72 0.67
0.77 0.69 0.52 0.42 0.38 0.35 0.33 0.30 0.28 0.30 0.33 0.38 0.42 0.43 0.46 0.50 0.54 0.60 0.75 0.92 0.98 0.94 1.03 1.26 1.49 1.71 1.84 1.80 1.56 1.17 0.92 0.79 0.77 0.71 0.63 0.68 0.80 0.83
0.60 0.49 0.37 0.34 0.34 0.32 0.30 0.29 0.27 0.24 0.28 0.36 0.40 0.42 0.47 0.54 0.59 0.64 0.72 0.84 0.91 0.93 1.00 1.14 1.43 1.71 1.81 1.79 1.82 1.49 1.17 0.97 0.92 0.92 0.80 0.67 0.69 0.77
0.44 0.41 0.36 0.31 0.31 0.32 0.30 0.29 0.27 0.27 0.29 0.32 0.35 0.39 0.46 0.54 0.58 0.60 0.67 0.79 0.87 0.93 0.98 1.07 1.33 1.60 1.71 1.58 1.62 1.68 1.61 1.29 1.08 1.06 0.96 0.82 0.76 0.89
0.39 0.36 0.34 0.34 0.34 0.33 0.32 0.31 0.32 0.32 0.31 0.33 0.34 0.35 0.40 0.49 0.52 0.51 0.57 0.68 0.81 0.89 0.92 0.95 1.14 1.40 1.59 1.55 1.46 1.46 1.66 1.70 1.35 1.13 1.03 1.02 1.00 1.03
0.38 0.38 0.36 0.36 0.37 0.37 0.37 0.36 0.34 0.32 0.31 0.32 0.32 0.31 0.34 0.41 0.46 0.46 0.51 0.59 0.67 0.74 0.81 0.87 1.01 1.34 1.63 1.66 1.49 1.39 1.56 1.77 1.79 1.48 1.19 1.07 1.13 1.19
0.44 0.45 0.42 0.39 0.37 0.36 0.37 0.36 0.35 0.31 0.28 0.28 0.30 0.29 0.31 0.35 0.36 0.40 0.44 0.51 0.58 0.65 0.75 0.87 0.99 1.23 1.52 1.63 1.58 1.45 1.44 1.55 1.66 1.61 1.55 1.26 0.86 0.68